CW5066 Weather Reports


time (UTC)temp
C
wind
direction
speed
KPH
gust
KPH
rain 1hr
cm
rain 24hr
cm
rain mn
cm
humidity
%
barometer
mb
20210302012026 -2 0.0 0.0 0.00 0.05 0.05 45 1022.0
20210302011025 -2 0.0 0.0 0.00 0.05 0.05 45 1021.8
20210302010028 -1 0.0 0.0 0.00 0.05 0.05 40 1022.7
20210302005146 0 0.0 0.0 0.00 0.05 0.05 38 1023.4
20210302004032 0 0.0 0.0 0.00 0.05 0.05 36 1023.4
20210302003433 1 0.0 0.0 0.00 0.05 0.05 34 1024.0
20210302002037 1 0.0 0.0 0.00 0.05 0.05 33 1024.0
20210302001024 2 0.0 1.6 0.00 0.05 0.05 32 1024.8
20210302000033 2 0.0 0.0 0.00 0.05 0.05 33 1024.9
20210301235142 2 135 1.6 3.2 0.00 0.05 0.05 31 1024.9
20210301234022 3 0.0 1.6 0.00 0.05 0.05 31 1025.6
20210301233331 3 135 1.6 6.4 0.00 0.05 0.05 29 1025.8
20210301232025 3 135 1.6 3.2 0.00 0.05 0.05 28 1025.7
20210301231023 4 135 1.6 6.4 0.00 0.05 0.05 28 1025.2
20210301230035 4 135 1.6 4.8 0.00 0.05 0.05 29 1025.4
20210301225109 5 135 1.6 6.4 0.00 0.05 0.05 28 1026.3
20210301224021 5 135 1.6 6.4 0.00 0.05 0.05 25 1027.0
20210301223318 5 135 3.2 9.7 0.03 0.05 0.05 26 1027.2
20210301222029 6 158 1.6 8.0 0.03 0.05 0.05 26 1028.0
20210301221038 6 135 1.6 8.0 0.03 0.05 0.05 25 1028.2
20210301220023 6 68 1.6 11.3 0.03 0.05 0.05 25 1029.6
20210301215132 6 135 4.8 11.3 0.03 0.05 0.05 25 1029.7
20210301214032 6 113 3.2 8.0 0.03 0.05 0.05 23 1029.9
20210301213436 6 135 3.2 9.7 0.00 0.03 0.03 24 1030.8
20210301212041 6 113 3.2 9.7 0.00 0.03 0.03 23 1030.8
20210301211024 6 158 3.2 9.7 0.00 0.03 0.03 26 1030.2
20210301210028 6 135 3.2 11.3 0.00 0.03 0.03 25 1030.4
20210301205217 6 135 1.6 9.7 0.00 0.03 0.03 21 1030.5
20210301204030 6 135 4.8 11.3 0.00 0.03 0.03 21 1030.5
20210301203343 6 135 1.6 8.0 0.00 0.03 0.03 22 1030.6
20210301202021 6 135 3.2 9.7 0.00 0.03 0.03 25 1030.9
20210301201021 6 135 3.2 9.7 0.00 0.03 0.03 25 1031.2
20210301200032 5 113 3.2 9.7 0.00 0.03 0.03 25 1031.5
20210301195206 6 135 3.2 9.7 0.03 0.03 0.03 26 1031.7
20210301194027 5 135 4.8 11.3 0.03 0.03 0.03 26 1031.2
20210301193303 5 90 3.2 6.4 0.03 0.03 0.03 28 1031.3
20210301192030 5 90 3.2 14.5 0.03 0.03 0.03 27 1031.5
20210301191020 5 68 3.2 9.7 0.03 0.03 0.03 28 1031.7
20210301190040 5 135 3.2 9.7 0.03 0.03 0.03 29 1032.0
20210301185051 5 203 1.6 9.7 0.00 0.00 0.00 30 1032.9
20210301184019 3 68 3.2 6.4 0.00 0.00 0.00 31 1031.7
20210301183539 3 68 3.2 8.0 0.00 0.00 0.00 30 1032.5
20210301182631 3 135 3.2 11.3 0.00 0.00 0.00 32 1032.0
20210301181520 3 135 3.2 11.3 0.00 0.00 0.00 31 1032.1
20210301180530 3 90 4.8 11.3 0.00 0.00 0.00 30 1032.1
20210301175523 3 158 3.2 4.8 0.00 0.00 0.00 31 1032.3
20210301174526 3 135 3.2 8.0 0.00 0.00 0.00 31 1032.3
20210301173525 2 68 3.2 8.0 0.00 0.00 0.00 31 1031.7
20210301172538 2 68 1.6 3.2 0.00 0.00 0.00 34 1031.8
20210301171527 2 90 3.2 6.4 0.00 0.00 0.00 32 1031.7
20210301170524 1 68 3.2 9.7 0.00 0.00 0.00 33 1031.2
20210301165528 1 90 3.2 11.3 0.00 0.00 0.00 32 1031.9
20210301164522 1 113 3.2 8.0 0.00 0.00 0.00 34 1031.3
20210301163539 1 135 3.2 8.0 0.00 0.00 0.00 33 1031.3
20210301162645 1 90 1.6 3.2 0.00 0.00 0.00 34 1031.2
20210301161524 1 90 1.6 3.2 0.00 0.00 0.00 34 1030.6
20210301160547 0 90 1.6 6.4 0.00 0.00 0.00 35 1030.6
20210301155521 0 0.0 3.2 0.00 0.00 0.00 35 1030.7
20210301154534 0 0.0 1.6 0.00 0.00 0.00 36 1030.3
20210301153545 -1 0.0 1.6 0.00 0.00 0.00 39 1029.7
20210301152823 -2 0.0 0.0 0.00 0.00 0.00 41 1029.0
20210301151529 -2 0.0 0.0 0.00 0.00 0.00 42 1028.3
20210301150522 -4 0.0 1.6 0.00 0.00 0.00 44 1027.7
20210301145521 -5 68 4.8 6.4 0.00 0.00 0.00 47 1027.0
20210301144523 -6 68 1.6 6.4 0.00 0.00 0.00 49 1026.2
20210301143523 -7 0.0 0.0 0.00 0.00 0.00 51 1025.3
20210301142741 -7 0.0 3.2 0.00 0.00 0.00 51 1025.3
20210301141526 -8 0.0 0.0 0.00 0.00 0.00 56 1024.7
20210301140540 -10 0.0 1.6 0.00 0.00 0.00 59 1024.0
20210301135553 -10 0.0 1.6 0.00 0.00 0.00 62 1023.9
20210301134540 -11 0.0 0.0 0.00 0.00 0.00 64 1023.0
20210301133525 -11 0.0 0.0 0.00 0.00 0.00 63 1022.9
20210301132531 -11 0.0 0.0 0.00 0.00 0.00 63 1022.9
20210301131700 -11 0.0 0.0 0.00 0.00 0.00 62 1022.8
20210301130525 -11 0.0 0.0 0.00 0.00 0.00 63 1022.9
20210301125526 -11 0.0 0.0 0.00 0.00 0.00 62 1022.8
20210301124534 -11 0.0 0.0 0.00 0.00 0.00 63 1022.8
20210301123521 -11 0.0 6.4 0.00 0.00 0.00 63 1022.8
20210301122652 -12 0.0 0.0 0.00 0.00 0.00 64 1022.6
20210301121543 -11 0.0 0.0 0.00 0.00 0.00 63 1022.5
20210301120542 -11 0.0 0.0 0.00 0.00 0.00 62 1022.5
20210301115535 -11 0.0 0.0 0.00 0.00 0.00 63 1022.4
20210301114526 -11 0.0 1.6 0.00 0.00 0.00 63 1022.4
20210301113531 -12 0.0 0.0 0.00 0.00 0.00 64 1022.1
20210301112751 -12 0.0 0.0 0.00 0.00 0.00 66 1022.1
20210301111535 -13 0.0 0.0 0.00 0.00 0.00 66 1022.1
20210301110537 -13 0.0 0.0 0.00 0.00 0.00 66 1021.7
20210301105524 -13 0.0 0.0 0.00 0.00 0.00 65 1022.4
20210301104527 -12 0.0 0.0 0.00 0.00 0.00 64 1023.0
20210301103523 -13 0.0 0.0 0.00 0.00 0.00 63 1022.4
20210301102630 -12 0.0 1.6 0.00 0.00 0.00 61 1023.2
20210301101544 -12 0.0 0.0 0.00 0.00 0.00 60 1023.3
20210301100528 -12 0.0 0.0 0.00 0.00 0.00 53 1023.8
20210301095521 -10 315 1.6 11.3 0.00 0.00 0.00 53 1025.3
20210301094523 -10 315 1.6 11.3 0.00 0.00 0.00 52 1025.4
20210301093526 -10 315 4.8 16.1 0.00 0.00 0.00 52 1024.8
20210301092703 -10 293 3.2 14.5 0.00 0.00 0.00 52 1025.0
20210301091544 -10 0.0 6.4 0.00 0.00 0.00 52 1025.1
20210301090522 -10 0.0 8.0 0.00 0.00 0.00 52 1025.1
20210301085528 -10 293 1.6 11.3 0.00 0.00 0.00 53 1025.1
20210301084521 -10 0.0 8.0 0.00 0.00 0.00 52 1025.7
20210301083526 -10 338 3.2 12.9 0.00 0.00 0.00 51 1025.7
20210301082659 -10 315 6.4 17.7 0.00 0.00 0.00 52 1025.7
20210301081530 -10 338 4.8 14.5 0.00 0.00 0.00 51 1025.7
20210301080522 -10 315 8.0 17.7 0.00 0.00 0.00 51 1025.6
20210301075521 -10 293 1.6 17.7 0.00 0.00 0.00 50 1024.7
20210301074524 -10 293 3.2 14.5 0.00 0.00 0.00 50 1024.6
20210301073528 -10 293 8.0 19.3 0.00 0.00 0.00 50 1024.4
20210301072608 -10 315 1.6 11.3 0.00 0.00 0.00 50 1025.0
20210301071530 -10 315 9.7 22.5 0.00 0.00 0.00 49 1024.7
20210301070524 -10 315 9.7 25.7 0.00 0.00 0.00 49 1024.6
20210301065534 -9 23 9.7 27.4 0.00 0.00 0.00 48 1024.4
20210301064534 -9 45 16.1 33.8 0.00 0.00 0.00 47 1024.5
20210301063523 -9 45 19.3 37.0 0.00 0.00 0.00 47 1024.4
20210301062602 -10 338 16.1 30.6 0.00 0.00 0.00 48 1024.6
20210301061527 -10 338 12.9 27.4 0.00 0.00 0.00 48 1022.4
20210301060523 -10 338 11.3 20.9 0.00 0.00 0.00 48 1022.4
20210301055532 -10 0 9.7 20.9 0.00 0.00 0.00 48 1022.3
20210301054537 -10 0 12.9 27.4 0.00 0.00 0.00 47 1022.2
20210301053524 -10 338 9.7 19.3 0.00 0.00 0.00 47 1022.2
20210301052636 -10 0 11.3 24.1 0.00 0.00 0.00 47 1022.1
20210301051530 -10 0 9.7 22.5 0.00 0.00 0.00 45 1022.1
20210301050539 -10 23 12.9 29.0 0.00 0.00 0.00 44 1022.1
20210301045520 -9 23 17.7 30.6 0.00 0.00 0.00 43 1021.0
20210301044525 -10 0 9.7 19.3 0.00 0.00 0.00 42 1020.9
20210301043523 -10 0 6.4 22.5 0.00 0.00 0.00 42 1020.1
20210301042556 -10 23 3.2 16.1 0.00 0.00 0.00 44 1019.3
20210301041523 -10 45 9.7 24.1 0.00 0.00 0.00 45 1019.2
20210301040535 -10 0 3.2 16.1 0.00 0.00 0.00 46 1019.2
20210301035518 -10 0 4.8 20.9 0.00 0.00 0.00 46 1018.8
20210301034520 -10 338 19.3 29.0 0.00 0.00 0.00 46 1017.7
20210301033533 -11 315 12.9 22.5 0.00 0.00 0.00 48 1017.6
20210301032621 -10 338 9.7 24.1 0.00 0.00 0.00 49 1016.7
20210301031518 -11 0 9.7 19.3 0.00 0.00 0.00 50 1016.9
20210301030529 -11 0 14.5 30.6 0.00 0.00 0.00 51 1016.8
20210301025524 -11 0 16.1 27.4 0.00 0.00 0.00 52 1016.9
20210301024522 -10 270 30.6 49.9 0.00 0.00 0.00 49 1016.2
20210301023521 -10 270 25.7 37.0 0.00 0.00 0.00 48 1016.1
20210301022713 -11 270 24.1 41.8 0.00 0.00 0.00 48 1015.9
20210301021544 -11 248 24.1 43.5 0.00 0.00 0.00 47 1016.5
20210301020523 -10 270 20.9 38.6 0.00 0.00 0.00 46 1015.9
20210301015523 -10 248 22.5 38.6 0.00 0.00 0.00 44 1016.5
20210301014520 -10 270 17.7 30.6 0.00 0.00 0.00 43 1016.3
20210301013518 -10 270 17.7 32.2 0.00 0.00 0.00 42 1016.0